When you browse on this site, cookies collect data to enhance your experience and personalize the content and advertising you see.
Visit our Privacy Policy to learn more. By continuing to use the site, you agree to this use of cookies and data.
  • In Österreich
  • Länderverzeichnis
  • Für 7 Tage
  • Wassertemperatur
  • Wetterkarte
  • News
  • Widgets
  • user-avatar
    Anmelden

    Stündliche Wetter Galyy Bor

    Heute, 23 Oktober, Mittwoch

    Zeit Temperatur Niederschläge Wind Luftdruck Luftfeuchtigkeit
    00:00 +13°C° 0 mm 2 m/S 753 mmHg 89%
    01:00 +13°C° 0 mm 2 m/S 753 mmHg 90%
    02:00 +13°C° 0 mm 2 m/S 753 mmHg 92%
    03:00 +13°C° 0 mm 2 m/S 753 mmHg 92%
    04:00 +13°C° 0 mm 1 m/S 753 mmHg 93%
    05:00 +12°C° 0 mm 1 m/S 753 mmHg 93%
    06:00 +13°C° 0 mm 1 m/S 753 mmHg 92%
    07:00 +13°C° 0 mm 1 m/S 753 mmHg 91%
    08:00 +13°C° 0 mm 1 m/S 753 mmHg 90%
    09:00 +14°C° 0 mm 1 m/S 753 mmHg 84%
    10:00 +16°C° 0 mm 2 m/S 753 mmHg 78%
    11:00 +17°C° 0 mm 2 m/S 753 mmHg 72%
    12:00 +18°C° 0 mm 2 m/S 753 mmHg 70%
    13:00 +19°C° 0 mm 2 m/S 753 mmHg 67%
    14:00 +20°C° 0 mm 1 m/S 753 mmHg 65%
    15:00 +18°C° 0 mm 2 m/S 753 mmHg 70%
    16:00 +17°C° 0 mm 2 m/S 753 mmHg 75%
    17:00 +15°C° 0 mm 2 m/S 753 mmHg 80%
    18:00 +14°C° 0 mm 2 m/S 753 mmHg 81%
    19:00 +13°C° 0 mm 2 m/S 753 mmHg 82%
    20:00 +12°C° 0 mm 2 m/S 753 mmHg 83%
    21:00 +12°C° 0 mm 1 m/S 753 mmHg 84%
    22:00 +11°C° 0 mm 1 m/S 753 mmHg 84%
    23:00 +11°C° 0 mm 1 m/S 753 mmHg 84%

    Morgen, 24 Oktober, Donnerstag

    Zeit Temperatur Niederschläge Wind Luftdruck Luftfeuchtigkeit
    00:00 +11°C° 0 mm 1 m/S 753 mmHg 85%
    01:00 +10°C° 0 mm 1 m/S 753 mmHg 86%
    02:00 +10°C° 0 mm 1 m/S 753 mmHg 87%
    03:00 +10°C° 0 mm 1 m/S 753 mmHg 88%
    04:00 +10°C° 0 mm 1 m/S 753 mmHg 89%
    05:00 +9°C° 0 mm 2 m/S 752 mmHg 90%
    06:00 +9°C° 0 mm 2 m/S 752 mmHg 90%
    07:00 +9°C° 0 mm 2 m/S 752 mmHg 89%
    08:00 +9°C° 0 mm 2 m/S 752 mmHg 89%
    09:00 +12°C° 0 mm 2 m/S 752 mmHg 83%
    10:00 +14°C° 0 mm 2 m/S 752 mmHg 78%
    11:00 +16°C° 0 mm 2 m/S 752 mmHg 72%
    12:00 +17°C° 0 mm 2 m/S 752 mmHg 70%
    13:00 +17°C° 0 mm 3 m/S 752 mmHg 68%
    14:00 +18°C° 0 mm 3 m/S 752 mmHg 66%
    15:00 +17°C° 0 mm 3 m/S 751 mmHg 72%
    16:00 +16°C° 0 mm 3 m/S 751 mmHg 78%
    17:00 +15°C° 0 mm 2 m/S 751 mmHg 84%
    18:00 +13°C° 0 mm 3 m/S 751 mmHg 85%
    19:00 +13°C° 0 mm 3 m/S 751 mmHg 87%
    20:00 +12°C° 0 mm 3 m/S 751 mmHg 89%
    21:00 +12°C° 0 mm 3 m/S 751 mmHg 90%
    22:00 +12°C° 0 mm 3 m/S 751 mmHg 92%
    23:00 +11°C° 0 mm 3 m/S 751 mmHg 93%

    übermorgen, 25 Oktober, Freitag

    Zeit Temperatur Niederschläge Wind Luftdruck Luftfeuchtigkeit
    00:00 +11°C° 0 mm 3 m/S 751 mmHg 93%
    01:00 +11°C° 0 mm 3 m/S 751 mmHg 94%
    02:00 +11°C° 0 mm 3 m/S 751 mmHg 94%
    03:00 +11°C° 0 mm 3 m/S 750 mmHg 94%
    04:00 +11°C° 0 mm 3 m/S 750 mmHg 93%
    05:00 +10°C° 0 mm 3 m/S 750 mmHg 93%
    06:00 +10°C° 0 mm 3 m/S 750 mmHg 91%
    07:00 +10°C° 0 mm 3 m/S 750 mmHg 90%
    08:00 +10°C° 0 mm 3 m/S 750 mmHg 88%
    09:00 +12°C° 0 mm 3 m/S 750 mmHg 80%
    10:00 +14°C° 0 mm 3 m/S 750 mmHg 72%
    11:00 +17°C° 0 mm 3 m/S 750 mmHg 64%
    12:00 +18°C° 0 mm 3 m/S 750 mmHg 62%
    13:00 +18°C° 0 mm 3 m/S 750 mmHg 60%
    14:00 +19°C° 0 mm 3 m/S 750 mmHg 57%
    15:00 +18°C° 0 mm 3 m/S 750 mmHg 63%
    16:00 +17°C° 0 mm 2 m/S 750 mmHg 69%
    17:00 +15°C° 0 mm 2 m/S 750 mmHg 75%
    18:00 +15°C° 0 mm 2 m/S 750 mmHg 78%
    19:00 +14°C° 0 mm 2 m/S 751 mmHg 82%
    20:00 +13°C° 0 mm 2 m/S 751 mmHg 86%
    21:00 +13°C° 0 mm 2 m/S 752 mmHg 88%
    22:00 +12°C° 0 mm 2 m/S 752 mmHg 91%
    23:00 +12°C° 0 mm 2 m/S 752 mmHg 93%

    26 Oktober, Samstag

    Zeit Temperatur Niederschläge Wind Luftdruck Luftfeuchtigkeit
    00:00 +12°C° 0 mm 1 m/S 753 mmHg 94%
    01:00 +12°C° 0 mm 1 m/S 753 mmHg 94%
    02:00 +11°C° 0 mm 1 m/S 753 mmHg 94%
    03:00 +11°C° 0 mm 1 m/S 753 mmHg 94%
    04:00 +11°C° 0 mm 1 m/S 753 mmHg 94%
    05:00 +10°C° 0 mm 1 m/S 753 mmHg 94%
    06:00 +10°C° 0 mm 1 m/S 753 mmHg 92%
    07:00 +10°C° 0 mm 1 m/S 753 mmHg 90%
    08:00 +11°C° 0 mm 1 m/S 753 mmHg 88%
    09:00 +12°C° 0 mm 1 m/S 753 mmHg 83%
    10:00 +14°C° 0 mm 2 m/S 753 mmHg 77%
    11:00 +15°C° 0 mm 2 m/S 753 mmHg 72%
    12:00 +16°C° 0 mm 3 m/S 752 mmHg 71%
    13:00 +17°C° 0 mm 3 m/S 751 mmHg 70%
    14:00 +18°C° 0 mm 3 m/S 751 mmHg 69%
    15:00 +17°C° 0 mm 3 m/S 750 mmHg 75%
    16:00 +14°C° 0 mm 3 m/S 750 mmHg 81%
    17:00 +14°C° 0 mm 2 m/S 749 mmHg 86%
    18:00 +13°C° 0 mm 3 m/S 749 mmHg 87%
    19:00 +13°C° 0 mm 3 m/S 749 mmHg 88%
    20:00 +12°C° 0 mm 3 m/S 749 mmHg 89%
    21:00 +12°C° 0 mm 3 m/S 749 mmHg 89%
    22:00 +12°C° 0 mm 3 m/S 748 mmHg 88%
    23:00 +12°C° 0 mm 3 m/S 748 mmHg 88%

    27 Oktober, Sonntag

    Zeit Temperatur Niederschläge Wind Luftdruck Luftfeuchtigkeit
    00:00 +12°C° 0 mm 3 m/S 748 mmHg 86%
    01:00 +11°C° 0 mm 3 m/S 748 mmHg 85%
    02:00 +11°C° 0 mm 3 m/S 748 mmHg 83%
    03:00 +11°C° 0 mm 3 m/S 748 mmHg 84%
    04:00 +11°C° 0 mm 3 m/S 747 mmHg 85%
    05:00 +10°C° 0 mm 3 m/S 747 mmHg 86%
    06:00 +10°C° 0 mm 3 m/S 747 mmHg 86%
    07:00 +11°C° 0 mm 4 m/S 747 mmHg 85%
    08:00 +11°C° 0 mm 4 m/S 746 mmHg 85%
    09:00 +12°C° 0 mm 4 m/S 746 mmHg 79%
    10:00 +14°C° 0 mm 5 m/S 746 mmHg 73%
    11:00 +15°C° 0 mm 6 m/S 746 mmHg 67%
    12:00 +16°C° 0 mm 6 m/S 746 mmHg 63%
    13:00 +17°C° 0 mm 6 m/S 746 mmHg 60%
    14:00 +17°C° 0 mm 6 m/S 745 mmHg 57%
    15:00 +16°C° 0 mm 5 m/S 745 mmHg 63%
    16:00 +15°C° 0 mm 5 m/S 745 mmHg 68%
    17:00 +14°C° 0 mm 4 m/S 745 mmHg 73%
    18:00 +13°C° 0.1 mm 4 m/S 745 mmHg 76%
    19:00 +13°C° 0.1 mm 5 m/S 746 mmHg 78%
    20:00 +13°C° 0.1 mm 5 m/S 746 mmHg 80%
    21:00 +12°C° 0.1 mm 5 m/S 747 mmHg 77%
    22:00 +10°C° 0.1 mm 5 m/S 747 mmHg 74%
    23:00 +9°C° 0.1 mm 5 m/S 748 mmHg 72%

    28 Oktober, Montag

    Zeit Temperatur Niederschläge Wind Luftdruck Luftfeuchtigkeit
    00:00 +8°C° 0 mm 4 m/S 748 mmHg 75%
    01:00 +8°C° 0 mm 3 m/S 748 mmHg 77%
    02:00 +7°C° 0 mm 2 m/S 748 mmHg 80%
    03:00 +6°C° 0 mm 2 m/S 748 mmHg 83%
    04:00 +6°C° 0 mm 2 m/S 748 mmHg 85%
    05:00 +5°C° 0 mm 2 m/S 748 mmHg 88%
    06:00 +5°C° 0 mm 2 m/S 748 mmHg 85%
    07:00 +5°C° 0 mm 3 m/S 748 mmHg 83%
    08:00 +5°C° 0 mm 3 m/S 748 mmHg 80%
    09:00 +6°C° 0 mm 4 m/S 748 mmHg 74%
    10:00 +7°C° 0 mm 4 m/S 748 mmHg 67%
    11:00 +8°C° 0 mm 5 m/S 748 mmHg 61%
    12:00 +8°C° 0 mm 5 m/S 748 mmHg 60%
    13:00 +8°C° 0 mm 5 m/S 747 mmHg 59%
    14:00 +9°C° 0 mm 5 m/S 747 mmHg 59%
    15:00 +8°C° 0 mm 5 m/S 747 mmHg 61%
    16:00 +7°C° 0 mm 4 m/S 746 mmHg 64%
    17:00 +7°C° 0 mm 4 m/S 746 mmHg 66%
    18:00 +6°C° 0 mm 4 m/S 746 mmHg 67%
    19:00 +5°C° 0 mm 4 m/S 746 mmHg 68%
    20:00 +5°C° 0 mm 4 m/S 747 mmHg 69%
    21:00 +5°C° 0 mm 4 m/S 747 mmHg 67%
    22:00 +5°C° 0 mm 4 m/S 747 mmHg 66%
    23:00 +5°C° 0 mm 4 m/S 747 mmHg 64%

    29 Oktober, Dienstag

    Zeit Temperatur Niederschläge Wind Luftdruck Luftfeuchtigkeit
    00:00 +4°C° 0 mm 4 m/S 746 mmHg 68%
    01:00 +4°C° 0 mm 4 m/S 746 mmHg 71%
    02:00 +3°C° 0 mm 4 m/S 746 mmHg 75%
    03:00 +3°C° 0 mm 3 m/S 746 mmHg 78%
    04:00 +3°C° 0 mm 3 m/S 746 mmHg 80%
    05:00 +2°C° 0 mm 3 m/S 745 mmHg 83%
    06:00 +2°C° 0 mm 3 m/S 746 mmHg 83%
    07:00 +3°C° 0 mm 4 m/S 746 mmHg 83%
    08:00 +3°C° 0 mm 4 m/S 746 mmHg 83%
    09:00 +3°C° 0.2 mm 4 m/S 746 mmHg 84%
    10:00 +3°C° 0.2 mm 4 m/S 747 mmHg 86%
    11:00 +3°C° 0.2 mm 4 m/S 747 mmHg 87%
    12:00 +2°C° 0.2 mm 5 m/S 747 mmHg 81%
    13:00 +2°C° 0.2 mm 5 m/S 748 mmHg 75%
    14:00 +2°C° 0.2 mm 5 m/S 748 mmHg 68%
    15:00 +1°C° 0 mm 5 m/S 749 mmHg 66%
    16:00 0°C° 0 mm 5 m/S 749 mmHg 64%
    17:00 -1°C° 0 mm 4 m/S 750 mmHg 62%
    18:00 -1°C° 0 mm 4 m/S 751 mmHg 65%
    19:00 -2°C° 0 mm 4 m/S 751 mmHg 67%
    20:00 -2°C° 0 mm 3 m/S 752 mmHg 70%
    21:00 -2°C° 0 mm 3 m/S 752 mmHg 72%
    22:00 -3°C° 0 mm 4 m/S 753 mmHg 74%
    23:00 -3°C° 0 mm 4 m/S 753 mmHg 76%
    Mehr zeigen